When you browse on this site, cookies collect data to enhance your experience and personalize the content and advertising you see.
Visit our Privacy Policy to learn more. By continuing to use the site, you agree to this use of cookies and data.
  • In Lithuania
  • List of Countries
  • For 7 days
  • Water Temperature
  • Satellite Maps
  • Weather Map
  • Weather Widgets
  • user-avatar
    Login

    Hourly Weather Melbourne

    Today, 24 March, Sunday

    Time Temperature Precipitation Wind Pressure Humidity
    00:00 +22°C° 0 mm 1 mps 757 mmHg 75%
    01:00 +21°C° 0 mm 1 mps 757 mmHg 76%
    02:00 +19°C° 0 mm 0 mps 757 mmHg 77%
    03:00 +19°C° 0 mm 0 mps 756 mmHg 79%
    04:00 +18°C° 0 mm 0 mps 756 mmHg 81%
    05:00 +18°C° 0 mm 0 mps 756 mmHg 81%
    06:00 +18°C° 0 mm 0 mps 756 mmHg 82%
    07:00 +18°C° 0 mm 0 mps 756 mmHg 82%
    08:00 +22°C° 0 mm 1 mps 756 mmHg 72%
    09:00 +24°C° 0 mm 2 mps 756 mmHg 62%
    10:00 +27°C° 0 mm 3 mps 756 mmHg 52%
    11:00 +28°C° 0 mm 3 mps 755 mmHg 46%
    12:00 +30°C° 0 mm 4 mps 754 mmHg 40%
    13:00 +32°C° 0 mm 5 mps 753 mmHg 34%
    14:00 +32°C° 0 mm 5 mps 752 mmHg 36%
    15:00 +32°C° 0 mm 6 mps 751 mmHg 38%
    16:00 +30°C° 0 mm 7 mps 750 mmHg 39%
    17:00 +29°C° 0.1 mm 7 mps 750 mmHg 44%
    18:00 +28°C° 0.1 mm 7 mps 750 mmHg 49%
    19:00 +27°C° 0.1 mm 7 mps 750 mmHg 53%
    20:00 +26°C° 0.1 mm 7 mps 749 mmHg 56%
    21:00 +26°C° 0.1 mm 7 mps 749 mmHg 59%
    22:00 +24°C° 0.1 mm 7 mps 749 mmHg 63%
    23:00 +24°C° 0.3 mm 7 mps 749 mmHg 62%

    Tomorrow, 25 March, Monday

    Time Temperature Precipitation Wind Pressure Humidity
    00:00 +23°C° 0.3 mm 7 mps 749 mmHg 62%
    01:00 +23°C° 0.3 mm 8 mps 749 mmHg 61%
    02:00 +22°C° 0 mm 7 mps 749 mmHg 60%
    03:00 +21°C° 0 mm 6 mps 750 mmHg 58%
    04:00 +20°C° 0 mm 6 mps 750 mmHg 57%
    05:00 +19°C° 0 mm 6 mps 750 mmHg 55%
    06:00 +17°C° 0 mm 6 mps 751 mmHg 52%
    07:00 +16°C° 0 mm 6 mps 752 mmHg 50%
    08:00 +16°C° 0 mm 7 mps 752 mmHg 46%
    09:00 +16°C° 0 mm 7 mps 753 mmHg 43%
    10:00 +16°C° 0 mm 8 mps 754 mmHg 40%
    11:00 +16°C° 0.1 mm 8 mps 754 mmHg 40%
    12:00 +16°C° 0.1 mm 8 mps 755 mmHg 39%
    13:00 +15°C° 0.1 mm 8 mps 755 mmHg 39%
    14:00 +15°C° 0 mm 7 mps 755 mmHg 38%
    15:00 +15°C° 0 mm 7 mps 756 mmHg 37%
    16:00 +15°C° 0 mm 6 mps 756 mmHg 37%
    17:00 +15°C° 0 mm 6 mps 756 mmHg 36%
    18:00 +15°C° 0 mm 6 mps 757 mmHg 35%
    19:00 +15°C° 0 mm 6 mps 757 mmHg 34%
    20:00 +14°C° 0 mm 6 mps 758 mmHg 36%
    21:00 +13°C° 0 mm 6 mps 759 mmHg 38%
    22:00 +13°C° 0 mm 6 mps 759 mmHg 40%
    23:00 +11°C° 0 mm 6 mps 760 mmHg 43%

    Day after tomorrow, 26 March, Tuesday

    Time Temperature Precipitation Wind Pressure Humidity
    00:00 +11°C° 0 mm 6 mps 760 mmHg 47%
    01:00 +11°C° 0 mm 6 mps 760 mmHg 50%
    02:00 +11°C° 0 mm 6 mps 760 mmHg 53%
    03:00 +12°C° 0 mm 5 mps 760 mmHg 55%
    04:00 +12°C° 0 mm 5 mps 761 mmHg 58%
    05:00 +12°C° 0 mm 5 mps 761 mmHg 59%
    06:00 +12°C° 0 mm 5 mps 762 mmHg 61%
    07:00 +12°C° 0 mm 5 mps 763 mmHg 62%
    08:00 +13°C° 0 mm 5 mps 763 mmHg 58%
    09:00 +14°C° 0 mm 5 mps 764 mmHg 53%
    10:00 +16°C° 0 mm 5 mps 764 mmHg 48%
    11:00 +17°C° 0 mm 5 mps 764 mmHg 44%
    12:00 +19°C° 0 mm 4 mps 764 mmHg 39%
    13:00 +20°C° 0 mm 3 mps 764 mmHg 35%
    14:00 +21°C° 0 mm 3 mps 764 mmHg 34%
    15:00 +21°C° 0 mm 3 mps 764 mmHg 33%
    16:00 +21°C° 0 mm 3 mps 764 mmHg 32%
    17:00 +20°C° 0 mm 3 mps 764 mmHg 38%
    18:00 +19°C° 0 mm 3 mps 765 mmHg 44%
    19:00 +18°C° 0 mm 2 mps 765 mmHg 50%
    20:00 +17°C° 0 mm 2 mps 766 mmHg 54%
    21:00 +16°C° 0 mm 1 mps 766 mmHg 58%
    22:00 +16°C° 0 mm 1 mps 767 mmHg 61%
    23:00 +15°C° 0 mm 1 mps 767 mmHg 65%

    27 March, Wednesday

    Time Temperature Precipitation Wind Pressure Humidity
    00:00 +15°C° 0 mm 1 mps 767 mmHg 68%
    01:00 +14°C° 0 mm 1 mps 767 mmHg 71%
    02:00 +14°C° 0 mm 1 mps 767 mmHg 73%
    03:00 +14°C° 0 mm 1 mps 767 mmHg 75%
    04:00 +13°C° 0 mm 1 mps 767 mmHg 78%
    05:00 +13°C° 0 mm 1 mps 767 mmHg 78%
    06:00 +13°C° 0 mm 1 mps 767 mmHg 79%
    07:00 +13°C° 0 mm 1 mps 767 mmHg 80%
    08:00 +15°C° 0 mm 1 mps 767 mmHg 71%
    09:00 +19°C° 0 mm 1 mps 767 mmHg 61%
    10:00 +19°C° 0 mm 0 mps 768 mmHg 52%
    11:00 +22°C° 0 mm 1 mps 767 mmHg 47%
    12:00 +24°C° 0 mm 1 mps 767 mmHg 41%
    13:00 +25°C° 0 mm 1 mps 766 mmHg 36%
    14:00 +25°C° 0 mm 1 mps 765 mmHg 36%
    15:00 +25°C° 0 mm 2 mps 765 mmHg 36%
    16:00 +25°C° 0 mm 2 mps 764 mmHg 35%
    17:00 +24°C° 0 mm 2 mps 764 mmHg 41%
    18:00 +21°C° 0 mm 3 mps 764 mmHg 47%
    19:00 +19°C° 0 mm 3 mps 764 mmHg 53%
    20:00 +19°C° 0 mm 2 mps 765 mmHg 57%
    21:00 +18°C° 0 mm 2 mps 765 mmHg 61%
    22:00 +17°C° 0 mm 2 mps 765 mmHg 65%
    23:00 +18°C° 0 mm 1 mps 764 mmHg 66%

    28 March, Thursday

    Time Temperature Precipitation Wind Pressure Humidity
    00:00 +18°C° 0 mm 1 mps 763 mmHg 67%
    01:00 +16°C° 0 mm 1 mps 763 mmHg 67%
    02:00 +16°C° 0 mm 1 mps 763 mmHg 66%
    03:00 +16°C° 0 mm 1 mps 762 mmHg 64%
    04:00 +16°C° 0 mm 2 mps 762 mmHg 63%
    05:00 +16°C° 0 mm 2 mps 762 mmHg 60%
    06:00 +16°C° 0 mm 3 mps 762 mmHg 56%
    07:00 +16°C° 0 mm 3 mps 762 mmHg 53%
    08:00 +18°C° 0 mm 3 mps 762 mmHg 49%
    09:00 +20°C° 0 mm 3 mps 762 mmHg 45%
    10:00 +22°C° 0 mm 3 mps 762 mmHg 41%
    11:00 +25°C° 0 mm 3 mps 761 mmHg 37%
    12:00 +27°C° 0 mm 3 mps 760 mmHg 32%
    13:00 +28°C° 0 mm 2 mps 760 mmHg 28%
    14:00 +28°C° 0 mm 2 mps 759 mmHg 26%
    15:00 +29°C° 0 mm 2 mps 758 mmHg 25%
    16:00 +29°C° 0 mm 2 mps 758 mmHg 24%
    17:00 +27°C° 0 mm 2 mps 758 mmHg 30%
    18:00 +25°C° 0 mm 2 mps 758 mmHg 37%
    19:00 +23°C° 0 mm 2 mps 758 mmHg 43%
    20:00 +21°C° 0 mm 2 mps 758 mmHg 49%
    21:00 +20°C° 0 mm 2 mps 758 mmHg 54%
    22:00 +20°C° 0 mm 1 mps 758 mmHg 60%
    23:00 +19°C° 0 mm 1 mps 758 mmHg 61%

    29 March, Friday

    Time Temperature Precipitation Wind Pressure Humidity
    00:00 +19°C° 0 mm 1 mps 757 mmHg 62%
    01:00 +16°C° 0 mm 0 mps 757 mmHg 63%
    02:00 +18°C° 0 mm 1 mps 756 mmHg 60%
    03:00 +18°C° 0 mm 1 mps 756 mmHg 57%
    04:00 +17°C° 0 mm 2 mps 756 mmHg 54%
    05:00 +16°C° 0 mm 2 mps 756 mmHg 55%
    06:00 +16°C° 0 mm 2 mps 756 mmHg 56%
    07:00 +16°C° 0 mm 3 mps 756 mmHg 57%
    08:00 +18°C° 0 mm 3 mps 756 mmHg 56%
    09:00 +19°C° 0 mm 4 mps 756 mmHg 55%
    10:00 +21°C° 0 mm 4 mps 756 mmHg 54%
    11:00 +21°C° 0.1 mm 5 mps 756 mmHg 53%
    12:00 +20°C° 0.1 mm 5 mps 756 mmHg 53%
    13:00 +20°C° 0.1 mm 5 mps 756 mmHg 52%
    14:00 +20°C° 0 mm 6 mps 756 mmHg 47%
    15:00 +20°C° 0 mm 6 mps 756 mmHg 43%
    16:00 +20°C° 0 mm 7 mps 756 mmHg 38%
    17:00 +17°C° 0 mm 6 mps 757 mmHg 44%
    18:00 +15°C° 0 mm 6 mps 758 mmHg 50%
    19:00 +14°C° 0 mm 5 mps 758 mmHg 57%
    20:00 +13°C° 0 mm 5 mps 759 mmHg 57%
    21:00 +12°C° 0 mm 5 mps 759 mmHg 58%
    22:00 +12°C° 0 mm 5 mps 760 mmHg 59%
    23:00 +10°C° 0 mm 5 mps 760 mmHg 59%
    Show more